Weather History for Pueblo, CO

Change the Weather History Date:

Wednesday, February 15, 2012

  Actual Average Record
Temperature  
Mean Temperature 35 °F 34 °F  
Max Temperature 44 °F 50 °F 78 °F (1947)
Min Temperature 25 °F 17 °F -23 °F (1895)
Degree Days  
Heating Degree Days 30 31  
Month to date heating degree days 524 491  
Since 1 July heating degree days 3744 3923  
Cooling Degree Days 0 0  
Month to date cooling degree days 0 0  
Year to date cooling degree days 0 0  
Moisture  
Dew Point 21 °F    
Average Humidity 64    
Maximum Humidity 88    
Minimum Humidity 39    
Precipitation  
Precipitation 0.00 in 0.01 in 0.22 in (1965)
Month to date precipitation 0.37 0.13  
Year to date precipitation 0.40 0.48  
Snow  
Snow 0.00 in 0.10 in 2.80 in (1965)
Month to date snowfall 3.6 2.2  
Since 1 July snowfall 25.6 20.2  
Snow Depth 0.00 in    
Sea Level Pressure  
Sea Level Pressure 29.97 in    
Wind  
Wind Speed 8 mph (NE)    
Max Wind Speed 18 mph    
Max Gust Speed 22 mph    
Visibility 10 miles    
Events      
T = Trace of Precipitation, MM = Missing Value Source: NWS Daily Summary

Daily Weather History Graph

Daily Weather History Graph

Search for Another Location

Airport:

Trip Planner

Search our weather history database for the weather conditions in past years. The results will help you decide how hot, cold, wet, or windy it might be!

Date:

Astronomy

Feb. 15, 2012 Rise Set
Actual Time 6:48 AM MST 5:35 PM MST
Civil Twilight 6:21 AM MST 6:02 PM MST
Nautical Twilight 5:50 AM MST 6:33 PM MST
Astronomical Twilight 5:20 AM MST 7:04 PM MST
Moon 1:42 AM MST (2/15) 11:36 AM MST (2/15)
Length of Visible Light 11h 41m
Length of Day
10h 46m
Last Quarter, 38% of the Moon is Illuminated
Feb 15
Last Quarter
Feb 21
New
Feb 29
First Quarter
Mar 8
Full
Mar 14
Last Quarter

Hourly Weather History & Observations

Time (MST) Temp. Windchill Dew Point Humidity Pressure Visibility Wind Dir Wind Speed Gust Speed Precip Events Conditions
12:46 AM 33.8 °F 26.4 °F 21.2 °F 60% 29.74 in 10.0 mi NE 9.2 mph - N/A   Clear
12:53 AM 35.1 °F 29.3 °F 21.0 °F 57% 29.73 in 10.0 mi Variable 6.9 mph - N/A   Clear
1:53 AM 33.1 °F 28.7 °F 21.0 °F 61% 29.74 in 10.0 mi NNE 4.6 mph - N/A   Clear
2:53 AM 32.0 °F - 19.9 °F 61% 29.74 in 10.0 mi Calm Calm - N/A   Clear
3:53 AM 30.9 °F 26.2 °F 21.0 °F 67% 29.76 in 10.0 mi NW 4.6 mph - N/A   Clear
4:53 AM 32.0 °F 23.6 °F 21.9 °F 66% 29.78 in 10.0 mi NW 10.4 mph - N/A   Clear
5:53 AM 28.9 °F 23.9 °F 21.0 °F 72% 29.85 in 10.0 mi North 4.6 mph - N/A   Clear
6:53 AM 30.9 °F 22.2 °F 21.9 °F 69% 29.90 in 10.0 mi NE 10.4 mph - N/A   Clear
7:53 AM 34.0 °F 27.2 °F 21.9 °F 61% 29.94 in 10.0 mi North 8.1 mph 17.3 mph N/A   Clear
8:53 AM 35.1 °F 25.2 °F 21.9 °F 59% 29.99 in 10.0 mi NE 16.1 mph - N/A   Clear
9:53 AM 36.0 °F 28.0 °F 21.9 °F 57% 30.01 in 10.0 mi ENE 11.5 mph - N/A   Clear
10:53 AM 37.9 °F 30.5 °F 21.9 °F 53% 30.03 in 10.0 mi ENE 11.5 mph - N/A   Clear
11:53 AM 39.2 °F 32.5 °F 21.2 °F 49% 29.98 in 10.0 mi ENE 10.4 mph 17.3 mph N/A   Clear
12:53 PM 43.0 °F 36.0 °F 19.9 °F 40% 29.97 in 10.0 mi ENE 13.8 mph 18.4 mph N/A   Clear
1:53 PM 43.0 °F 36.8 °F 19.0 °F 38% 29.97 in 10.0 mi ESE 11.5 mph - N/A   Clear
2:53 PM 42.1 °F 34.5 °F 19.9 °F 41% 29.99 in 10.0 mi East 15.0 mph 20.7 mph N/A   Partly Cloudy
3:53 PM 41.0 °F 33.1 °F 19.9 °F 43% 30.01 in 10.0 mi East 15.0 mph - N/A   Clear
4:53 PM 39.9 °F 33.4 °F 21.0 °F 47% 30.02 in 10.0 mi SE 10.4 mph - N/A   Clear
5:53 PM 33.1 °F 26.1 °F 21.0 °F 61% 30.09 in 10.0 mi East 8.1 mph - N/A   Clear
6:53 PM 30.9 °F 22.2 °F 23.0 °F 72% 30.11 in 10.0 mi NE 10.4 mph - N/A   Clear
7:53 PM 30.0 °F 21.7 °F 23.0 °F 75% 30.12 in 10.0 mi NE 9.2 mph - N/A   Clear
8:53 PM 28.0 °F - 23.0 °F 81% 30.16 in 10.0 mi Calm Calm - N/A   Clear
9:53 PM 25.0 °F 19.3 °F 21.0 °F 85% 30.19 in 10.0 mi WSW 4.6 mph - N/A   Clear
10:53 PM 26.1 °F 20.5 °F 23.0 °F 88% 30.19 in 10.0 mi North 4.6 mph - N/A   Clear
11:53 PM 26.1 °F - 21.9 °F 84% 30.19 in 10.0 mi Calm Calm - N/A   Clear